Regional Weather Roundup
Issued by NWS

Home | Current Version | Previous Version | Graphics & Text | Print | Product List | Glossary On
Versions: 1 2 3 4 5 6 7 8 9 10 11 12 13 14 15 16 17 18 19 20 21 22 23 24 25 26 27 28 29 30 31 32 33 34 35 36 37 38 39 40 41 42 43 44 45 46 47 48 49 50
000
ASUS43 KDTX 250801
RWRMI
MICHIGAN HOURLY REGIONAL WEATHER ROUNDUP
NATIONAL WEATHER SERVICE DETROIT/PONTIAC MI
400 AM EDT SAT MAR 25 2017

NOTE: "FAIR" INDICATES FEW OR NO CLOUDS BELOW 12,000 FEET WITH NO
SIGNIFICANT WEATHER AND/OR OBSTRUCTION TO VISIBILITY.

MIZ047>049-052>055-059>063-066>070-074>076-081>083-250900-
SOUTHEAST LOWER MICHIGAN

CITY           SKY/WX    TMP DP  RH WIND       PRES   REMARKS
ADRIAN         CLOUDY    46  40  79 E10       30.08R
ALMA           CLOUDY    37  37  97 NE10      30.14S WCI  30
ANN ARBOR      CLOUDY    46  39  76 E6        30.06F
BAD AXE        MIX PCPN  34  33  95 NE10G16   30.15S WCI  26
CARO           CLOUDY    37  35  94 N6        30.13R WCI  32
DETROIT CITY   CLOUDY    43  41  93 NE6       30.09F
DETROIT        CLOUDY    47  39  74 NE8       30.09F
FLINT          CLOUDY    39  37  92 NE9       30.11S WCI  33
GROSSE ILE     CLOUDY    45  39  79 NE6       30.07F
HILLSDALE      CLOUDY    48  45  87 SE6       30.04S
HOWELL         LGT RAIN  40  38  93 NE6       30.08S

CITY           SKY/WX    TMP DP  RH WIND       PRES   REMARKS
JACKSON        CLOUDY    46  42  86 E10       30.06S
LAMBERTVILLE   CLOUDY    47  41  78 E5        30.08F
LANSING        HVY RAIN  39  36  89 NE10      30.10F FOG     WCI  32
LAPEER         MOCLDY    38  37  97 N5        30.11R WCI  35
MASON          CLOUDY    41  40  97 NE7       30.08S FOG
MONROE         CLOUDY    46  41  81 E3        30.07F
MT. CLEMENS    LGT RAIN  41  41 100 N5        30.07F
PONTIAC        RAIN      40  32  73 NE6       30.07F
PORT HOPE        N/A     34  33  96 NE12      30.15S WCI  25
PORT HURON     LGT RAIN  37  34  87 N5        30.10F WCI  34
TRI CITIES     CLOUDY    36  35  96 NE18      30.15S WCI  26
MIDLAND        RAIN      37  35  93 NE8       30.15S WCI  30
TROY           DRIZZLE   42  39  88 NE8       30.10F
SAGINAW HB     DRIZZLE   36  32  87 N13       30.14S WCI  27
$$
MIZ043>046-050>051-056>058-064>065-071>073-077>080-250900-
SOUTHWEST LOWER MICHIGAN

CITY           SKY/WX    TMP DP  RH WIND       PRES   REMARKS
BATTLE CREEK   CLOUDY    44  43  96 NE8       30.06F
BENTON HARBOR  CLOUDY    45  42  89 NW3       30.03S FOG
BIG RAPIDS     CLOUDY    37  34  88 E8        30.13R WCI  31
COLDWATER      CLOUDY    51  44  78 N6        30.04R
FREMONT        DRIZZLE   40  38  93 E10       30.09F WCI  33
HOLLAND        LGT RAIN  43  37  79 NE8G16    30.08R
GRAND RAPIDS   CLOUDY    41  35  79 E15       30.09R
IONIA          CLOUDY    38  35  88 NE10G16   30.09S WCI  31
KALAMAZOO      CLOUDY    46  42  86 NE7       30.04F FOG
LUDINGTON      CLOUDY    37  36  99 NE6       30.13S WCI  32
MARSHALL       CLOUDY    45  44  98 CALM      30.06R FOG
MOUNT PLEASANT DRIZZLE   37  35  93 NE9       30.14F WCI  30
MUSKEGON       LGT RAIN  42  38  85 E14       30.09F
SOUTH HAVEN    DRIZZLE   46  45  95 E8        30.03S
$$
MIZ016>042-250900-
NORTHERN LOWER MICHIGAN

CITY           SKY/WX    TMP DP  RH WIND       PRES   REMARKS
ALPENA         CLOUDY    35  34  96 NE6       30.23R WCI  30
BEAVER ISLAND  CLOUDY    34  32  94 NE5       30.24R WCI  30
BELLAIRE       CLOUDY    34  33  94 CALM      30.20F
CADILLAC       LGT RAIN  33  32  96 E9        30.13S WCI  25
CHARLEVOIX     CLOUDY    35  35 100 NE5       30.25R WCI  31
FRANKFORT      CLOUDY    35  33  90 NE3       30.17F
GAYLORD        CLOUDY    35  32  88 E6        30.18R WCI  30
GRAYLING       RAIN      34  32  93 NE5       30.18R WCI  30
HARBOR SPRINGS CLOUDY    34  33  94 NE7       30.22R WCI  28
HOUGHTON LAKE  LGT RAIN  33  32  96 E8        30.16F WCI  26
MANISTEE       LGT RAIN  36  34  92 NE8       30.15R WCI  30
OSCODA         MIX PCPN  35  34  95 NE9       30.19S WCI  28
PELLSTON       CLOUDY    35  31  85 E6        30.23R WCI  30
ROGERS CITY    CLOUDY    34  33  94 NE5         N/A  WCI  30
TRAVERSE CITY  MIX PCPN  36  34  92 NE8       30.18F WCI  30
$$
MIZ007>008-015-250900-
EASTERN UPPER MICHIGAN

CITY           SKY/WX    TMP DP  RH WIND       PRES   REMARKS
KINROSS        CLOUDY    33  30  88 NE7       30.26R WCI  27
MACKINAC ISLAN CLOUDY    33  33 100 NE8       30.24R WCI  25
NEWBERRY       CLOUDY    31  30  96 N5        30.25R WCI  26
S. S. MARIE    CLOUDY    35  28  75 NE6       30.26R WCI  30
MUNISING         N/A     33  31  92 N6        30.26R WCI  28
$$
MIZ004>006-011>014-085-250900-
CENTRAL UPPER MICHIGAN

CITY           SKY/WX    TMP DP  RH WIND       PRES   REMARKS
MANISTIQUE     CLOUDY    32  32 100 N6        30.25R WCI  26
ESCANABA       CLOUDY    34  32  92 N6        30.25S WCI  29
MENOMINEE        N/A    N/A N/A N/A MISG        N/A
SAWYER-GWINN   CLOUDY    31  29  93 NE7       30.25S WCI  24
$$
MIZ001>003-009>011-084-250900-
WESTERN UPPER MICHIGAN

CITY           SKY/WX    TMP DP  RH WIND       PRES   REMARKS
IRON MOUNTAIN  CLOUDY    34  29  82 NE6       30.22S WCI  29
HOUGHTON       CLOUDY    32  25  75 E12       30.27R WCI  23
COPPER HARBOR    N/A     33  25  72 VRB7      30.31R WCI  27
IRONWOOD       CLOUDY    32  29  88 NE3       30.25S
$$

ABBREVIATIONS USED IN REMARKS
   TC - TEMPERATURE IN CELSIUS
  WCI - WIND CHILL INDEX
   HX - HEAT INDEX
  VSB - VISIBILITY




USA.gov is the U.S. government's official web portal to all federal, state and local government web resources and services.